Regional Weather Roundup
Issued by NWS

Home | Current Version | Previous Version | Text Only | Print | Product List | Glossary Off
Versions: 1 2 3 4 5 6 7 8 9 10 11 12 13 14 15 16 17 18 19 20 21 22 23 24 25 26 27 28 29 30 31 32 33 34 35 36 37 38 39 40 41 42 43 44 45 46 47 48 49 50

000
ASUS45 KSLC 132210
RWRUT

UTAH REGIONAL WEATHER ROUNDUP
NATIONAL WEATHER SERVICE SALT LAKE CITY UT
300 PM MST SAT FEB 13 2016

UTZ001>011-023>025-132300-

NORTHERN UTAH

CITY           SKY/WX    TMP DP  RH WIND       PRES   REMARKS
BRIGHAM CITY   CLOUDY    30  26  83 W5        30.31F WCI  25
HILL AFB       MOSUNNY   34  34 100 W2        30.28F FOG
LOGAN          SUNNY     29  25  85 W6        30.27F WCI  23
OGDEN          SUNNY     32  28  85 NW3       30.28F FOG
PROVO AIRPORT  FOG       28  27  93 CALM      30.30F VSB 1/2
SALT LAKE CITY CLOUDY    32  29  88 S3        30.30F FOG
VERNAL         CLOUDY    33  23  66 S3        30.18F HAZE
WENDOVER       CLOUDY    34  27  75 S5        30.29F WCI  30
HEBER CITY     SUNNY     41  21  45 S3        30.21S
WEST JORDAN    SUNNY     34  30  86 NW6       30.30F WCI  29

$$

UTZ012>022-026-027-132300-

SOUTHERN/CENTRAL UTAH

CITY           SKY/WX    TMP DP  RH WIND       PRES   REMARKS
BLANDING       SUNNY     49  26  41 CALM      30.26S
BRYCE CANYON   MOSUNNY   48  16  27 NW15      30.26F
CEDAR CITY     MOSUNNY   52  23  32 N6        30.21F
DELTA          CLOUDY    25  24  96 S5        30.29S WCI  19
HANKSVILLE     SUNNY     52  32  46 NW3       30.22F
MILFORD        CLOUDY    27  21  78 N14       30.26F WCI  16
MOAB/CYNLANDS  MOSUNNY   47  35  63 N6        30.18F
PRICE          MOSUNNY   46  27  47 S5        30.19F
ST GEORGE      CLEAR     63  28  27 CALM      30.13F
KANAB          PTSUNNY   68  18  14 S3        30.17F

$$

REGIONAL REPORTS     COLORADO/ARIZONA

CITY           SKY/WX    TMP DP  RH WIND       PRES   REMARKS
CRAIG, CO      CLOUDY    30  22  72 SE3       30.18F
GRAND JUNCTION SUNNY     41  32  70 NW9       30.19F
RIFLE          CLOUDY    39  25  57 E6        30.17F WCI  35
MONTROSE       SUNNY     49  27  42 CALM      30.19F
CORTEZ         SUNNY     57  28  33 W9        30.17F
PAGE, AZ       MOSUNNY   57  32  38 CALM      30.15F
GRAND CANYON   SUNNY     64   0   7 NW8       30.22F
KINGMAN        SUNNY     74  16  11 NE5       30.10F
FLAGSTAFF      SUNNY     60  14  16 SW9       30.23F

$$

REGIONAL REPORTS    NEVADA/IDAHO/WYOMING

CITY           SKY/WX    TMP DP  RH WIND       PRES   REMARKS
LAS VEGAS, NV  MOSUNNY   74  21  13 NE5       30.06F
ELY            SUNNY     48  24  39 E5        30.28F
ELKO           SUNNY     39  26  59 SW6       30.28F WCI  35
POCATELLO, ID  MOSUNNY   43  31  62 W25G35    30.23R
BURLEY         LGT RAIN  46  33  60 W14G24    30.24S
EVANSTON, WY   SUNNY     39  25  57 SW16      30.21F WCI  30
ROCK SPRINGS   SUNNY     43  26  51 SW23      30.11F
KEMMERER       SUNNY     37  27  65 W17G30    30.16R WCI  28

$$



USA.gov is the U.S. government's official web portal to all federal, state and local government web resources and services.